VE3DVC Weather Reports


time (UTC)temp
C
wind
direction
speed
KPH
gust
KPH
rain 1hr
cm
rain 24hr
cm
rain mn
cm
humidity
%
barometer
mb
20260503210656 14 239 6.4 20.9 0.00 0.00 0.00 51 1009.4
20260503203954 13 218 4.8 12.9 0.00 0.00 0.00 55 1009.6
20260503202755 13 221 3.2 14.5 0.00 0.00 0.00 55 1009.6
20260503201555 14 244 4.8 16.1 0.00 0.00 0.00 54 1009.8
20260503200355 15 226 3.2 11.3 0.00 0.00 0.00 56 1009.7
20260503195155 14 218 1.6 14.5 0.00 0.00 0.00 57 1010.0
20260503193955 14 158 3.2 11.3 0.00 0.00 0.00 57 1010.0
20260503192755 13 198 1.6 14.5 0.00 0.00 0.00 57 1010.2
20260503191555 13 233 4.8 14.5 0.00 0.00 0.00 58 1010.1
20260503190355 13 202 3.2 16.1 0.00 0.00 0.00 57 1010.3
20260503183356 13 203 1.6 14.5 0.00 0.00 0.00 60 1010.7
20260503182156 13 215 3.2 11.3 0.00 0.00 0.00 59 1010.9
20260503180956 13 229 3.2 14.5 0.00 0.00 0.00 60 1011.0
20260503175756 13 186 1.6 8.0 0.00 0.00 0.00 62 1011.1
20260503174556 12 215 3.2 14.5 0.00 0.00 0.00 61 1011.4
20260503173356 12 216 3.2 20.9 0.00 0.00 0.00 61 1011.4
20260503171427 12 228 3.2 11.3 0.00 0.00 0.00 60 1011.6
20260503170227 12 228 3.2 14.5 0.00 0.00 0.00 60 1011.8
20260503150227 11 252 3.2 9.7 0.00 0.00 0.00 63 1012.9
20260503140227 10 235 3.2 11.3 0.00 0.00 0.00 53 1013.4
20260503131027 7 0 0.0 3.2 0.00 0.00 0.00 65 1014.1
20260503090438 0 0 0.0 0.0 0.00 0.00 0.00 91 1013.6
20260503072400 0 0 0.0 0.0 0.00 0.00 0.00 89 1014.1
20260503071200 0 0 0.0 0.0 0.00 0.00 0.00 89 1014.1
20260503053110 0 0 0.0 0.0 0.00 0.00 0.00 83 1014.8
20260503051910 0 0 0.0 0.0 0.00 0.00 0.00 84 1014.9
20260503050710 0 0 0.0 0.0 0.00 0.00 0.00 85 1015.0
20260503045510 0 0 0.0 0.0 0.00 0.00 0.00 86 1015.1
20260503044309 0 0 0.0 0.0 0.00 0.00 0.00 86 1015.0
20260503043109 0 0 0.0 0.0 0.00 0.00 0.00 86 1015.2
20260503041910 0 0 0.0 0.0 0.00 0.00 0.00 86 1015.2
20260503040710 0 0 0.0 0.0 0.00 0.00 0.00 86 1015.3
20260503035509 1 0 0.0 0.0 0.00 0.00 0.00 86 1015.2
20260503034309 1 0 0.0 0.0 0.00 0.00 0.00 86 1015.3
20260503031411 1 0 0.0 0.0 0.00 0.00 0.00 86 1015.4
20260503030212 1 0 0.0 0.0 0.00 0.00 0.00 85 1015.4
20260503025012 2 0 0.0 0.0 0.00 0.00 0.00 84 1015.5
20260503023811 2 0 0.0 0.0 0.00 0.00 0.00 83 1015.5
20260503022611 2 0 0.0 0.0 0.00 0.00 0.00 82 1015.6
20260503021411 2 0 0.0 0.0 0.00 0.00 0.00 81 1015.6
20260503020211 3 0 0.0 0.0 0.00 0.00 0.00 80 1015.5
20260503015011 3 0 0.0 0.0 0.00 0.00 0.00 78 1015.5
20260503013811 4 0 0.0 0.0 0.00 0.00 0.00 76 1015.5
20260503012611 4 0 0.0 0.0 0.00 0.00 0.00 74 1015.4
20260503004813 6 0 0.0 0.0 0.00 0.00 0.00 67 1015.3
20260503003614 6 0 0.0 0.0 0.00 0.00 0.00 64 1015.2
20260503002413 6 0 0.0 0.0 0.00 0.00 0.00 62 1015.1
20260503001214 6 0 0.0 0.0 0.00 0.00 0.00 60 1015.2
20260503000014 6 0 0.0 0.0 0.00 0.00 0.00 58 1015.2
20260502234813 6 0 0.0 0.0 0.00 0.00 0.00 58 1015.0
20260502233613 6 0 0.0 0.0 0.00 0.00 0.00 57 1015.1
20260502232414 6 0 0.0 0.0 0.00 0.00 0.00 59 1015.2
20260502231213 6 0 0.0 1.6 0.00 0.00 0.00 56 1015.1
20260502230013 7 0 0.0 3.2 0.00 0.00 0.00 57 1015.1
20260502222628 6 0 0.0 1.6 0.00 0.00 0.00 58 1015.1
20260502221429 6 0 0.0 3.2 0.00 0.00 0.00 59 1015.2
20260502215829 6 0 0.0 4.8 0.00 0.00 0.00 59 1015.2
20260502214630 6 321 1.6 6.4 0.00 0.00 0.00 58 1015.2
20260502213429 7 0 0.0 3.2 0.00 0.00 0.00 60 1015.1
20260502212229 7 0 0.0 4.8 0.00 0.00 0.00 59 1015.1